GW1014 Weather Reports


time (UTC)temp
C
wind
direction
speed
KPH
gust
KPH
rain 1hr
cm
rain 24hr
cm
rain mn
cm
humidity
%
barometer
mb
20260510184154 27 260 1.6 4.8 0.00 0.00 0.00 29 1015.5
20260510183649 27 298 6.4 12.9 0.00 0.00 0.00 30 1015.3
20260510183145 27 267 4.8 11.3 0.00 0.00 0.00 33 1015.3
20260510182642 27 332 0.0 1.6 0.00 0.00 0.00 33 1015.2
20260510182137 27 331 1.6 6.4 0.00 0.00 0.00 30 1015.4
20260510181635 27 251 3.2 4.8 0.00 0.00 0.00 33 1015.5
20260510181131 27 128 1.6 4.8 0.00 0.00 0.00 34 1015.4
20260510180627 27 311 3.2 9.7 0.00 0.00 0.00 34 1015.7
20260510180125 27 252 1.6 4.8 0.00 0.00 0.00 31 1015.6
20260510175620 27 303 1.6 1.6 0.00 0.00 0.00 32 1015.7
20260510175116 27 265 6.4 6.4 0.00 0.00 0.00 31 1015.8
20260510174614 26 218 1.6 3.2 0.00 0.00 0.00 36 1015.8
20260510174111 26 136 4.8 6.4 0.00 0.00 0.00 35 1015.7
20260510173607 26 36 0.0 3.2 0.00 0.00 0.00 36 1015.9
20260510173104 27 322 0.0 3.2 0.00 0.00 0.00 33 1015.9
20260510172559 26 243 1.6 3.2 0.00 0.00 0.00 35 1015.9
20260510172055 26 249 1.6 4.8 0.00 0.00 0.00 32 1016.0
20260510171552 26 257 3.2 11.3 0.00 0.00 0.00 31 1016.0
20260510171050 26 268 1.6 4.8 0.00 0.00 0.00 37 1016.0
20260510170546 26 128 3.2 4.8 0.00 0.00 0.00 31 1016.0
20260510170043 26 232 4.8 4.8 0.00 0.00 0.00 42 1015.9
20260510165538 26 250 3.2 4.8 0.00 0.00 0.00 38 1015.9
20260510165035 25 353 0.0 1.6 0.00 0.00 0.00 36 1016.1
20260510164532 25 17 0.0 0.0 0.00 0.00 0.00 37 1016.3
20260510164029 25 246 1.6 3.2 0.00 0.00 0.00 37 1016.1
20260510163524 25 255 0.0 3.2 0.00 0.00 0.00 37 1016.3
20260510163020 25 330 0.0 3.2 0.00 0.00 0.00 39 1016.1
20260510162516 25 125 0.0 1.6 0.00 0.00 0.00 36 1016.3
20260510162013 25 310 0.0 0.0 0.00 0.00 0.00 36 1016.4
20260510161509 24 329 0.0 3.2 0.00 0.00 0.00 33 1016.4
20260510161006 24 61 6.4 9.7 0.00 0.00 0.00 39 1016.3
20260510160503 24 92 1.6 3.2 0.00 0.00 0.00 40 1016.3
20260510160001 24 29 6.4 6.4 0.00 0.00 0.00 36 1016.4
20260510155458 23 27 1.6 1.6 0.00 0.00 0.00 40 1016.6
20260510154955 24 323 1.6 1.6 0.00 0.00 0.00 44 1016.4
20260510154451 23 16 1.6 4.8 0.00 0.00 0.00 40 1016.5
20260510153950 23 326 1.6 4.8 0.00 0.00 0.00 38 1016.4
20260510153446 23 258 6.4 6.4 0.00 0.00 0.00 40 1016.4
20260510152943 23 321 0.0 3.2 0.00 0.00 0.00 41 1016.6
20260510152441 23 291 0.0 6.4 0.00 0.00 0.00 43 1016.4
20260510151937 23 325 0.0 1.6 0.00 0.00 0.00 46 1016.6
20260510151434 23 234 1.6 1.6 0.00 0.00 0.00 45 1016.4
20260510150930 23 45 4.8 4.8 0.00 0.00 0.00 46 1016.6
20260510150426 22 283 1.6 3.2 0.00 0.00 0.00 45 1016.6
20260510145922 22 259 3.2 4.8 0.00 0.00 0.00 49 1016.7
20260510145419 22 262 0.0 3.2 0.00 0.00 0.00 46 1016.7
20260510144915 22 298 1.6 3.2 0.00 0.00 0.00 45 1016.7
20260510144412 22 267 3.2 6.4 0.00 0.00 0.00 47 1016.6
20260510143907 22 256 3.2 6.4 0.00 0.00 0.00 47 1016.7
20260510143403 22 331 3.2 4.8 0.00 0.00 0.00 48 1016.7
20260510142900 21 253 0.0 3.2 0.00 0.00 0.00 49 1016.8
20260510142357 21 294 0.0 1.6 0.00 0.00 0.00 52 1016.6
20260510141853 21 235 3.2 4.8 0.00 0.00 0.00 48 1016.6
20260510141351 21 330 3.2 4.8 0.00 0.00 0.00 52 1016.6
20260510140848 21 357 0.0 0.0 0.00 0.00 0.00 57 1016.7
20260510140344 21 55 0.0 3.2 0.00 0.00 0.00 56
20260510135843 21 253 6.4 6.4 0.00 0.00 0.00 59
20260510135339 20 273 3.2 4.8 0.00 0.00 0.00 59
20260510134837 20 257 4.8 4.8 0.00 0.00 0.00 63
20260510134333 20 260 3.2 4.8 0.00 0.00 0.00 63 1016.4
20260510133830 20 264 1.6 3.2 0.00 0.00 0.00 66 1016.4
20260510133326 20 273 0.0 1.6 0.00 0.00 0.00 66 1016.5
20260510132821 20 273 0.0 1.6 0.00 0.00 0.00 69 1016.4
20260510132320 19 251 3.2 4.8 0.00 0.00 0.00 71
20260510131816 19 39 1.6 3.2 0.00 0.00 0.00 72
20260510131314 18 44 0.0 1.6 0.00 0.00 0.00 75
20260510130810 18 332 0.0 1.6 0.00 0.00 0.00 77
20260510130307 18 2 0.0 1.6 0.00 0.00 0.00 81
20260510125804 16 242 3.2 3.2 0.00 0.00 0.00 90
20260510125259 15 314 0.0 1.6 0.00 0.00 0.00 99 1016.4
20260510124757 16 221 0.0 0.0 0.00 0.00 0.00 99 1016.4
20260510124254 16 223 0.0 0.0 0.00 0.00 0.00 99
20260510123749 16 223 0.0 0.0 0.00 0.00 0.00 99
20260510123245 15 223 0.0 0.0 0.00 0.00 0.00 99
20260510122742 15 223 0.0 0.0 0.00 0.00 0.00 99
20260510122238 15 223 0.0 0.0 0.00 0.00 0.00 99 1016.0
20260510121734 14 223 0.0 0.0 0.00 0.00 0.00 99 1016.0
20260510121232 14 223 0.0 0.0 0.00 0.00 0.00 99 1016.0
20260510120730 13 223 0.0 0.0 0.00 0.00 0.00 99 1015.6
20260510120226 13 223 0.0 0.0 0.00 0.00 0.00 99 1015.6
20260510115721 13 223 0.0 0.0 0.00 0.00 0.00 99 1015.6
20260510115220 13 223 0.0 0.0 0.00 0.00 0.00 99 1015.6
20260510114715 13 223 0.0 0.0 0.00 0.00 0.00 99 1015.5
20260510114212 12 223 0.0 0.0 0.00 0.00 0.00 99 1015.2
20260510113707 12 222 0.0 0.0 0.00 0.00 0.00 99 1015.2
20260510113204 12 223 0.0 0.0 0.00 0.00 0.00 99 1015.2
20260510112700 12 222 0.0 0.0 0.00 0.00 0.00 99
20260510112158 12 222 0.0 0.0 0.00 0.00 0.00 99
20260510111648 12 223 0.0 0.0 0.00 0.00 0.00 99
20260510111144 11 222 0.0 0.0 0.00 0.00 0.00 99
20260510110639 11 222 0.0 0.0 0.00 0.00 0.00 99
20260510110138 11 222 0.0 0.0 0.00 0.00 0.00 99
20260510105633 11 223 0.0 0.0 0.00 0.00 0.00 99
20260510105132 11 223 0.0 0.0 0.00 0.00 0.00 99
20260510104629 11 223 0.0 0.0 0.00 0.00 0.00 99
20260510104126 11 223 0.0 0.0 0.00 0.00 0.00 99
20260510103623 11 223 0.0 0.0 0.00 0.00 0.00 99
20260510103119 11 223 0.0 0.0 0.00 0.00 0.00 99
20260510102615 11 223 0.0 0.0 0.00 0.00 0.00 99
20260510102110 11 223 0.0 0.0 0.00 0.00 0.00 99
20260510101608 11 223 0.0 0.0 0.00 0.00 0.00 99
20260510101106 11 223 0.0 0.0 0.00 0.00 0.00 99
20260510100602 11 223 0.0 0.0 0.00 0.00 0.00 99
20260510100100 11 223 0.0 0.0 0.00 0.00 0.00 99
20260510095555 11 223 0.0 0.0 0.00 0.00 0.00 99
20260510095050 11 223 0.0 0.0 0.00 0.00 0.00 99
20260510094549 11 223 0.0 0.0 0.00 0.00 0.00 99
20260510094045 12 223 0.0 0.0 0.00 0.00 0.00 99
20260510093542 12 223 0.0 0.0 0.00 0.00 0.00 99
20260510093038 12 223 0.0 0.0 0.00 0.00 0.00 99
20260510092536 12 223 0.0 0.0 0.00 0.00 0.00 99
20260510092035 12 223 0.0 0.0 0.00 0.00 0.00 99
20260510091532 12 223 0.0 0.0 0.00 0.00 0.00 99
20260510091028 12 223 0.0 0.0 0.00 0.00 0.00 99
20260510090525 12 223 0.0 0.0 0.00 0.00 0.00 99
20260510090021 12 223 0.0 0.0 0.00 0.00 0.00 99
20260510085521 12 223 0.0 0.0 0.00 0.00 0.00 99
20260510085017 12 223 0.0 0.0 0.00 0.00 0.00 99
20260510084514 12 223 0.0 0.0 0.00 0.00 0.00 99
20260510084011 12 223 0.0 0.0 0.00 0.00 0.00 99
20260510083507 12 223 0.0 0.0 0.00 0.00 0.00 99
20260510083003 12 223 0.0 0.0 0.00 0.00 0.00 99
20260510082501 12 223 0.0 0.0 0.00 0.00 0.00 99
20260510082000 13 223 0.0 0.0 0.00 0.00 0.00 99
20260510081456 13 223 0.0 0.0 0.00 0.00 0.00 99
20260510080952 13 223 0.0 0.0 0.00 0.00 0.00 99
20260510080451 13 223 0.0 0.0 0.00 0.00 0.00 99
20260510075948 13 223 0.0 0.0 0.00 0.00 0.00 99
20260510075446 13 223 0.0 0.0 0.00 0.00 0.00 99
20260510074942 13 223 0.0 0.0 0.00 0.00 0.00 99
20260510074440 13 223 0.0 0.0 0.00 0.00 0.00 99
20260510073936 13 223 0.0 0.0 0.00 0.00 0.00 99
20260510073431 13 223 0.0 0.0 0.00 0.00 0.00 99
20260510072928 13 223 0.0 0.0 0.00 0.00 0.00 99
20260510072425 13 223 0.0 0.0 0.00 0.00 0.00 99
20260510071920 13 223 0.0 0.0 0.00 0.00 0.00 99
20260510071417 13 223 0.0 0.0 0.00 0.00 0.00 99
20260510070915 13 223 0.0 0.0 0.00 0.00 0.00 99
20260510070412 13 223 0.0 0.0 0.00 0.00 0.00 99
20260510065907 13 223 0.0 0.0 0.00 0.00 0.00 99
20260510065404 13 223 0.0 0.0 0.00 0.00 0.00 99
20260510064901 13 223 0.0 0.0 0.00 0.00 0.00 99
20260510064359 13 223 0.0 0.0 0.00 0.00 0.00 99
20260510063855 13 223 0.0 0.0 0.00 0.00 0.00 99
20260510063351 13 223 0.0 0.0 0.00 0.00 0.00 99
20260510062849 13 223 0.0 0.0 0.00 0.00 0.00 99
20260510062349 13 223 0.0 0.0 0.00 0.00 0.00 99
20260510061845 14 223 0.0 0.0 0.00 0.00 0.00 99
20260510061342 14 223 0.0 0.0 0.00 0.00 0.00 99
20260510060838 14 223 0.0 0.0 0.00 0.00 0.00 99
20260510060335 14 223 0.0 0.0 0.00 0.00 0.00 99
20260510055832 14 223 0.0 0.0 0.00 0.00 0.00 99
20260510055331 14 223 0.0 0.0 0.00 0.00 0.00 99
20260510054830 14 223 0.0 0.0 0.00 0.00 0.00 99
20260510054326 14 223 0.0 0.0 0.00 0.00 0.00 99
20260510053821 14 223 0.0 0.0 0.00 0.00 0.00 99
20260510053317 14 223 0.0 0.0 0.00 0.00 0.00 99
20260510052814 14 223 0.0 0.0 0.00 0.00 0.00 99
20260510052309 14 223 0.0 0.0 0.00 0.00 0.00 99
20260510051805 15 223 0.0 0.0 0.00 0.00 0.00 99
20260510051302 15 223 0.0 0.0 0.00 0.00 0.00 99
20260510050800 15 223 0.0 0.0 0.00 0.00 0.00 99
20260510050256 15 223 0.0 0.0 0.00 0.00 0.00 99
20260510045753 15 223 0.0 0.0 0.00 0.00 0.00 99
20260510045250 15 223 0.0 0.0 0.00 0.00 0.00 99
20260510044747 15 223 0.0 0.0 0.00 0.00 0.00 99
20260510044244 15 223 0.0 0.0 0.00 0.00 0.00 99
20260510043739 15 223 0.0 0.0 0.00 0.00 0.00 99
20260510043237 15 223 0.0 0.0 0.00 0.00 0.00 98
20260510042734 15 223 0.0 0.0 0.00 0.00 0.00 97
20260510042229 15 223 0.0 0.0 0.00 0.00 0.00 97
20260510041726 15 223 0.0 0.0 0.00 0.00 0.00 97
20260510041224 15 223 0.0 0.0 0.00 0.00 0.00 97
20260510040720 16 223 0.0 0.0 0.00 0.00 0.00 97
20260510040217 16 223 0.0 0.0 0.00 0.00 0.00 97
20260510035713 16 223 0.0 0.0 0.00 0.00 0.00 97
20260510035209 16 223 0.0 0.0 0.00 0.00 0.00 96
20260510034705 16 223 0.0 0.0 0.00 0.00 0.00 96
20260510034203 16 223 0.0 0.0 0.00 0.00 0.00 96
20260510033659 16 223 0.0 0.0 0.00 0.00 0.00 96
20260510033157 16 223 0.0 0.0 0.00 0.00 0.00 96
20260510032652 16 223 0.0 0.0 0.00 0.00 0.00 95
20260510032148 16 223 0.0 0.0 0.00 0.00 0.00 95
20260510031643 16 223 0.0 0.0 0.00 0.00 0.00 95
20260510031141 16 223 0.0 0.0 0.00 0.00 0.00 95
20260510030640 16 223 0.0 0.0 0.00 0.00 0.00 95
20260510030138 16 223 0.0 0.0 0.00 0.00 0.00 95
20260510025635 16 223 0.0 0.0 0.00 0.00 0.00 95
20260510025132 16 223 0.0 0.0 0.00 0.00 0.00 95
20260510024629 16 223 0.0 0.0 0.00 0.00 0.00 95
20260510024126 16 223 0.0 0.0 0.00 0.00 0.00 94
20260510023622 16 223 0.0 0.0 0.00 0.00 0.00 94 1012.6
20260510023119 16 223 0.0 0.0 0.00 0.00 0.00 94 1012.6
20260510022619 16 223 0.0 0.0 0.00 0.00 0.00 93 1012.5
20260510022114 16 223 0.0 0.0 0.00 0.00 0.00 93
20260510021610 16 223 0.0 0.0 0.00 0.00 0.00 92
20260510021108 16 223 0.0 0.0 0.00 0.00 0.00 92
20260510020607 16 223 0.0 0.0 0.00 0.00 0.00 92
20260510015559 16 223 0.0 0.0 0.00 0.00 0.00 92
20260510015056 16 223 0.0 0.0 0.00 0.00 0.00 92
20260510014551 16 223 0.0 0.0 0.00 0.00 0.00 91
20260510014049 16 223 0.0 0.0 0.00 0.00 0.00 91
20260510013543 17 223 0.0 0.0 0.00 0.00 0.00 90
20260510013040 17 223 0.0 0.0 0.00 0.00 0.00 90
20260510012533 17 223 0.0 0.0 0.00 0.00 0.00 90
20260510012031 17 223 0.0 0.0 0.00 0.00 0.00 89 1011.7
20260510011530 17 223 0.0 0.0 0.00 0.00 0.00 88 1011.7
20260510011026 17 223 0.0 0.0 0.00 0.00 0.00 89
20260510010523 17 223 0.0 0.0 0.00 0.00 0.00 88 1011.3
20260510010020 17 223 0.0 0.0 0.00 0.00 0.00 87 1011.3
20260510005515 18 223 0.0 0.0 0.00 0.00 0.00 86 1011.4
20260510005013 18 223 0.0 0.0 0.00 0.00 0.00 85 1011.3
20260510004511 18 223 0.0 0.0 0.00 0.00 0.00 84 1011.2
20260510004008 18 223 0.0 0.0 0.00 0.00 0.00 84 1011.1
20260510003505 18 223 0.0 0.0 0.00 0.00 0.00 84 1011.3
20260510003000 18 223 0.0 0.0 0.00 0.00 0.00 83 1011.0
20260510002456 18 223 0.0 0.0 0.00 0.00 0.00 82 1011.0
20260510001953 18 223 0.0 0.0 0.00 0.00 0.00 82 1010.8
20260510001450 19 223 0.0 0.0 0.00 0.00 0.00 81 1010.8
20260510000948 19 223 0.0 0.0 0.00 0.00 0.00 81 1010.9
20260510000444 20 223 0.0 0.0 0.00 0.00 0.00 80 1010.7
20260509235940 20 223 0.0 0.0 0.00 0.00 0.00 80 1010.8
20260509235437 20 223 0.0 0.0 0.00 0.00 0.00 78 1010.8
20260509234933 20 223 0.0 0.0 0.00 0.00 0.00 78 1010.8
20260509234430 20 223 0.0 0.0 0.00 0.00 0.00 77 1010.7
20260509233928 21 223 0.0 0.0 0.00 0.00 0.00 76 1010.6
20260509233426 21 223 0.0 0.0 0.00 0.00 0.00 75 1010.3
20260509232921 21 223 0.0 3.2 0.00 0.00 0.00 76 1010.3
20260509232420 21 223 0.0 1.6 0.00 0.00 0.00 74 1010.4
20260509231915 21 223 3.2 3.2 0.00 0.00 0.00 73 1010.4
20260509231412 21 222 3.2 6.4 0.00 0.00 0.00 72 1010.3
20260509230910 21 223 3.2 3.2 0.00 0.00 0.00 71 1010.4
20260509230407 21 226 1.6 3.2 0.00 0.00 0.00 71 1010.4
20260509225902 21 224 3.2 4.8 0.00 0.00 0.00 71 1010.3
20260509225359 21 238 3.2 3.2 0.00 0.00 0.00 72 1010.2
20260509224855 22 241 1.6 3.2 0.00 0.00 0.00 71 1009.9
20260509224351 22 247 1.6 3.2 0.00 0.00 0.00 70 1009.8
20260509223848 22 281 1.6 1.6 0.00 0.00 0.00 71 1009.9
20260509223345 22 280 0.0 3.2 0.00 0.00 0.00 69 1010.2
20260509222843 22 220 3.2 4.8 0.00 0.00 0.00 69 1010.1
20260509222343 22 329 4.8 6.4 0.00 0.00 0.00 66 1010.1
20260509221838 22 335 1.6 3.2 0.00 0.00 0.00 67 1010.1
20260509221337 23 265 3.2 4.8 0.00 0.00 0.00 66 1010.1
20260509220836 22 260 1.6 3.2 0.00 0.00 0.00 68 1009.9
20260509220333 22 268 1.6 3.2 0.00 0.00 0.00 68 1010.2
20260509215828 22 304 3.2 6.4 0.00 0.00 0.00 65 1009.9
20260509215325 22 140 3.2 4.8 0.00 0.00 0.00 66 1010.2
20260509214822 22 216 1.6 3.2 0.00 0.00 0.00 68 1010.1
20260509214319 22 263 1.6 3.2 0.00 0.00 0.00 67 1009.9
20260509213817 22 231 3.2 3.2 0.00 0.00 0.00 66 1010.1
20260509213312 23 130 3.2 4.8 0.00 0.00 0.00 66 1009.8
20260509212810 22 236 0.0 3.2 0.00 0.00 0.00 68 1009.9
20260509212307 23 226 3.2 6.4 0.00 0.00 0.00 67 1010.2
20260509211802 23 276 1.6 4.8 0.00 0.00 0.00 63 1010.1
20260509211259 23 236 4.8 6.4 0.00 0.00 0.00 63 1009.8
20260509210755 23 205 3.2 4.8 0.00 0.00 0.00 65 1009.9
20260509210253 23 233 1.6 4.8 0.00 0.00 0.00 68 1009.7
20260509205753 22 321 1.6 6.4 0.00 0.00 0.00 64 1009.4
20260509205248 22 128 3.2 3.2 0.00 0.00 0.00 69 1009.6
20260509204744 23 216 1.6 3.2 0.00 0.00 0.00 65 1009.8
20260509204240 23 227 0.0 4.8 0.00 0.00 0.00 66 1009.8
20260509203736 23 151 3.2 3.2 0.00 0.00 0.00 63 1009.8
20260509203235 23 240 0.0 4.8 0.00 0.00 0.00 67 1010.1
20260509202730 23 207 4.8 4.8 0.00 0.00 0.00 65 1010.1
20260509202226 23 277 0.0 6.4 0.00 0.00 0.00 66 1010.2
20260509201721 23 274 1.6 4.8 0.00 0.00 0.00 68 1010.2
20260509201218 23 242 1.6 1.6 0.00 0.00 0.00 67 1010.2
20260509200714 23 303 0.0 4.8 0.00 0.00 0.00 66 1010.1
20260509200209 23 262 4.8 4.8 0.00 0.00 0.00 67 1010.1
20260509195705 23 244 4.8 6.4 0.00 0.00 0.00 68 1010.1
20260509195201 23 4 1.6 6.4 0.00 0.00 0.00 68 1010.2
20260509194701 22 230 4.8 4.8 0.00 0.00 0.00 66 1010.2
20260509194157 23 223 3.2 4.8 0.00 0.00 0.00 67 1010.3
20260509193654 23 301 0.0 4.8 0.00 0.00 0.00 65 1010.4
20260509193149 23 254 1.6 6.4 0.00 0.00 0.00 67 1010.5
20260509192646 22 218 3.2 4.8 0.00 0.00 0.00 67 1010.6
20260509192141 22 218 3.2 3.2 0.00 0.00 0.00 69 1010.5
20260509191641 22 216 3.2 4.8 0.00 0.00 0.00 69 1010.5
20260509191138 22 248 3.2 6.4 0.00 0.00 0.00 71 1010.6
20260509190635 22 205 3.2 3.2 0.00 0.00 0.00 68 1010.6
20260509190132 22 236 3.2 4.8 0.00 0.00 0.00 69 1010.6
20260509185629 22 247 3.2 6.4 0.00 0.00 0.00 69 1010.5
20260509185125 21 218 6.4 6.4 0.00 0.00 0.00 71 1010.4
20260509184623 21 246 1.6 3.2 0.00 0.00 0.00 72 1010.5